timestamp,wind_dir_avg,wind_spd_avg,wind_spd_max_dir,wind_spd_gust,battery_voltage,lat,long
2021-03-19 00:04:01+00:00,196.0,12.59,200.0,15.1,12.57,47.59359,-54.27349
2021-03-19 00:14:01+00:00,195.0,14.87,196.0,17.12,12.49,47.59359,-54.27349
2021-03-19 00:24:01+00:00,194.0,13.44,194.0,14.88,12.49,47.59359,-54.27349
2021-03-19 00:34:01+00:00,198.0,13.32,197.0,15.53,12.49,47.59359,-54.27349
2021-03-19 00:44:01+00:00,197.0,12.6,199.0,15.38,12.49,47.59359,-54.27349
2021-03-19 00:54:01+00:00,195.0,12.52,194.0,14.1,12.49,47.59359,-54.27349
2021-03-19 01:04:01+00:00,198.0,13.15,201.0,16.03,12.49,47.59359,-54.27349
2021-03-19 01:14:01+00:00,201.0,13.81,197.0,15.86,12.41,47.59359,-54.27349
2021-03-19 01:24:01+00:00,197.0,14.19,198.0,16.31,12.41,47.59359,-54.27349
2021-03-19 01:34:01+00:00,189.0,13.14,188.0,15.03,12.41,47.59359,-54.27349
2021-03-19 01:44:01+00:00,187.0,14.29,193.0,16.38,12.41,47.59359,-54.27349
2021-03-19 01:54:01+00:00,186.0,15.08,190.0,17.46,12.41,47.59359,-54.27349
2021-03-19 02:04:01+00:00,190.0,15.34,191.0,17.75,12.41,47.59359,-54.27349
2021-03-19 02:14:01+00:00,190.0,14.94,193.0,17.06,12.41,47.59359,-54.27349
2021-03-19 02:24:01+00:00,193.0,15.59,193.0,17.82,12.41,47.59359,-54.27349
2021-03-19 02:34:01+00:00,194.0,15.27,193.0,17.61,12.41,47.59359,-54.27349
2021-03-19 02:44:01+00:00,193.0,15.2,192.0,18.53,12.41,47.59359,-54.27349
2021-03-19 02:54:01+00:00,193.0,15.27,195.0,18.34,12.41,47.59359,-54.27349
2021-03-19 03:04:01+00:00,194.0,18.55,199.0,20.99,12.41,47.59359,-54.27349
2021-03-19 03:14:01+00:00,195.0,16.09,191.0,18.2,12.41,47.59359,-54.27349
2021-03-19 03:24:01+00:00,195.0,17.0,199.0,20.12,12.41,47.59359,-54.27349
2021-03-19 03:34:01+00:00,196.0,17.33,192.0,19.88,12.41,47.59359,-54.27349
2021-03-19 03:44:01+00:00,196.0,17.11,196.0,20.18,12.41,47.59359,-54.27349
2021-03-19 03:54:01+00:00,197.0,17.28,197.0,22.44,12.41,47.59359,-54.27349
2021-03-19 04:04:01+00:00,196.0,16.76,202.0,19.6,12.41,47.59359,-54.27349
2021-03-19 04:14:01+00:00,196.0,15.14,195.0,19.29,12.41,47.59359,-54.27349
2021-03-19 04:24:01+00:00,195.0,18.14,195.0,21.52,12.41,47.59359,-54.27349
2021-03-19 04:34:01+00:00,196.0,17.64,199.0,20.81,12.41,47.59359,-54.27349
2021-03-19 04:44:01+00:00,199.0,16.46,198.0,19.6,12.41,47.59359,-54.27349
2021-03-19 04:54:01+00:00,203.0,16.66,203.0,20.77,12.41,47.59359,-54.27349
2021-03-19 05:04:01+00:00,199.0,16.32,197.0,19.22,12.41,47.59359,-54.27349
2021-03-19 05:14:01+00:00,203.0,18.52,207.0,21.76,12.41,47.59359,-54.27349
2021-03-19 05:24:01+00:00,198.0,19.53,204.0,23.69,12.41,47.59359,-54.27349
2021-03-19 05:34:01+00:00,205.0,20.15,204.0,23.84,12.41,47.59359,-54.27349
2021-03-19 05:44:01+00:00,204.0,18.08,211.0,22.14,12.41,47.59359,-54.27349
2021-03-19 05:54:01+00:00,204.0,21.42,209.0,24.57,12.41,47.59359,-54.27349
2021-03-19 06:04:01+00:00,199.0,19.97,196.0,23.03,12.41,47.59359,-54.27349
2021-03-19 06:14:01+00:00,203.0,19.04,203.0,21.42,12.33,47.59359,-54.27349
2021-03-19 06:24:01+00:00,208.0,19.18,211.0,22.9,12.33,47.59359,-54.27349
2021-03-19 06:34:01+00:00,214.0,16.07,210.0,20.03,12.33,47.59359,-54.27349
2021-03-19 06:44:01+00:00,229.0,16.0,228.0,18.52,12.33,47.59359,-54.27349
2021-03-19 06:54:01+00:00,231.0,13.19,240.0,15.4,12.33,47.59359,-54.27349
2021-03-19 07:04:01+00:00,231.0,12.91,229.0,15.46,12.33,47.59359,-54.27349
2021-03-19 07:14:01+00:00,231.0,13.4,234.0,15.55,12.33,47.59359,-54.27349
2021-03-19 07:24:01+00:00,233.0,12.57,231.0,14.66,12.33,47.59359,-54.27349
2021-03-19 07:34:01+00:00,224.0,14.87,220.0,17.89,12.33,47.59359,-54.27349
2021-03-19 07:44:01+00:00,221.0,13.61,222.0,17.85,12.33,47.59359,-54.27349
2021-03-19 07:54:01+00:00,227.0,14.09,236.0,15.66,12.33,47.59359,-54.27349
2021-03-19 08:04:01+00:00,229.0,10.96,229.0,12.71,12.33,47.59359,-54.27349
2021-03-19 08:14:01+00:00,231.0,11.0,236.0,12.92,12.25,47.59359,-54.27349
2021-03-19 08:24:01+00:00,237.0,11.15,234.0,12.64,12.25,47.59359,-54.27349
2021-03-19 08:34:01+00:00,233.0,12.81,235.0,15.6,12.25,47.59359,-54.27349
2021-03-19 08:44:01+00:00,223.0,13.65,220.0,16.64,12.25,47.59359,-54.27349
2021-03-19 08:54:01+00:00,210.0,16.8,209.0,20.58,12.25,47.59359,-54.27349
2021-03-19 09:04:01+00:00,210.0,17.85,212.0,21.59,12.25,47.59359,-54.27349
2021-03-19 09:14:01+00:00,206.0,19.49,209.0,24.33,12.33,47.59359,-54.27349
2021-03-19 09:24:01+00:00,203.0,17.17,212.0,20.68,12.33,47.59359,-54.27349
2021-03-19 09:34:01+00:00,209.0,17.41,212.0,21.2,12.33,47.59359,-54.27349
2021-03-19 09:44:01+00:00,212.0,17.47,210.0,20.76,12.33,47.59359,-54.27349
2021-03-19 09:54:01+00:00,211.0,16.98,212.0,20.88,12.33,47.59359,-54.27349
2021-03-19 10:04:01+00:00,206.0,20.62,209.0,25.25,12.33,47.59359,-54.27349
2021-03-19 10:14:01+00:00,212.0,19.82,210.0,22.98,12.33,47.59359,-54.27349
2021-03-19 10:24:01+00:00,211.0,17.67,211.0,20.56,12.33,47.59359,-54.27349
2021-03-19 10:34:01+00:00,201.0,17.48,211.0,22.27,12.33,47.59359,-54.27349
2021-03-19 10:44:01+00:00,203.0,16.5,210.0,21.46,12.33,47.59359,-54.27349
2021-03-19 10:54:01+00:00,208.0,18.96,207.0,23.37,12.33,47.59359,-54.27349
2021-03-19 11:04:01+00:00,213.0,16.18,215.0,18.61,12.33,47.59359,-54.27349
2021-03-19 11:14:01+00:00,213.0,14.63,216.0,17.65,12.33,47.59359,-54.27349
2021-03-19 11:24:01+00:00,214.0,16.27,212.0,21.23,12.33,47.59359,-54.27349
2021-03-19 11:34:01+00:00,211.0,16.5,213.0,19.5,12.33,47.59359,-54.27349
2021-03-19 11:44:01+00:00,204.0,15.02,211.0,18.76,12.33,47.59359,-54.27349
2021-03-19 11:54:01+00:00,194.0,17.01,198.0,20.03,12.33,47.59359,-54.27349
2021-03-19 12:04:01+00:00,196.0,17.56,191.0,20.82,12.33,47.59359,-54.27349
2021-03-19 12:14:01+00:00,198.0,17.64,192.0,20.59,12.57,47.59359,-54.27349
2021-03-19 12:24:01+00:00,197.0,20.93,199.0,24.21,12.57,47.59359,-54.27349
2021-03-19 12:34:01+00:00,194.0,19.02,199.0,22.92,12.57,47.59359,-54.27349
2021-03-19 12:44:01+00:00,193.0,21.0,187.0,26.29,12.57,47.59359,-54.27349
2021-03-19 12:54:01+00:00,191.0,19.88,188.0,23.98,12.57,47.59359,-54.27349
2021-03-19 13:04:01+00:00,194.0,19.38,189.0,22.8,12.57,47.59359,-54.27349
2021-03-19 14:14:01+00:00,196.0,18.53,199.0,23.19,13.29,47.59359,-54.27349
2021-03-19 14:24:01+00:00,197.0,20.32,203.0,23.77,13.29,47.59359,-54.27349
2021-03-19 14:34:01+00:00,191.0,20.31,189.0,23.42,13.29,47.59359,-54.27349
2021-03-19 14:44:01+00:00,193.0,19.2,204.0,24.15,13.29,47.59359,-54.27349
2021-03-19 14:54:01+00:00,191.0,21.41,190.0,24.16,13.29,47.59359,-54.27349
2021-03-19 15:04:01+00:00,191.0,19.43,189.0,22.94,13.29,47.59359,-54.27349
2021-03-19 16:14:01+00:00,192.0,20.68,194.0,23.35,13.53,47.59359,-54.27349
2021-03-19 16:24:01+00:00,194.0,22.17,196.0,26.96,13.53,47.59359,-54.27349
2021-03-19 16:34:01+00:00,192.0,21.63,187.0,25.6,13.53,47.59359,-54.27349
2021-03-19 16:44:01+00:00,194.0,22.5,188.0,27.56,13.53,47.59359,-54.27349
2021-03-19 16:54:01+00:00,193.0,22.11,198.0,26.57,13.53,47.59359,-54.27349
2021-03-19 17:04:01+00:00,189.0,22.56,186.0,28.46,13.53,47.59359,-54.27349
2021-03-19 17:14:01+00:00,191.0,21.24,203.0,24.2,13.53,47.59359,-54.27349
2021-03-19 17:24:01+00:00,191.0,19.22,188.0,22.15,13.53,47.59359,-54.27349
2021-03-19 17:34:01+00:00,193.0,22.31,194.0,26.44,13.53,47.59359,-54.27349
2021-03-19 17:44:01+00:00,192.0,23.0,187.0,29.14,13.53,47.59359,-54.27349
2021-03-19 17:54:01+00:00,192.0,20.44,189.0,23.8,13.53,47.59359,-54.27349
2021-03-19 18:04:01+00:00,193.0,19.22,192.0,21.64,13.53,47.59359,-54.27349
2021-03-19 18:14:01+00:00,191.0,18.77,191.0,22.52,13.53,47.59359,-54.27349
2021-03-19 18:24:01+00:00,192.0,20.3,189.0,24.34,13.53,47.59359,-54.27349
2021-03-19 18:34:01+00:00,191.0,21.87,191.0,24.93,13.53,47.59359,-54.27349
2021-03-19 18:44:01+00:00,190.0,21.72,190.0,24.71,13.53,47.59359,-54.27349
2021-03-19 18:54:01+00:00,189.0,23.36,188.0,27.42,13.53,47.59359,-54.27349
2021-03-19 19:04:01+00:00,190.0,21.89,190.0,26.69,13.53,47.59359,-54.27349
2021-03-19 19:14:01+00:00,188.0,22.47,189.0,29.55,13.29,47.59359,-54.27349
2021-03-19 19:24:01+00:00,190.0,22.82,188.0,26.15,13.29,47.59359,-54.27349
2021-03-19 19:34:01+00:00,188.0,26.8,186.0,31.76,13.29,47.59359,-54.27349
2021-03-19 19:44:01+00:00,185.0,21.83,187.0,25.22,13.29,47.59359,-54.27349
2021-03-19 19:54:01+00:00,187.0,21.92,187.0,26.12,13.29,47.59359,-54.27349
2021-03-19 20:04:01+00:00,184.0,25.43,185.0,34.24,13.29,47.59359,-54.27349
2021-03-19 20:14:01+00:00,182.0,24.32,182.0,33.88,12.81,47.59359,-54.27349
2021-03-19 20:24:01+00:00,185.0,22.91,187.0,27.68,12.81,47.59359,-54.27349
2021-03-19 20:34:01+00:00,192.0,24.51,193.0,33.4,12.81,47.59359,-54.27349
2021-03-19 20:44:01+00:00,189.0,25.08,195.0,31.39,12.81,47.59359,-54.27349
2021-03-19 20:54:01+00:00,188.0,25.91,198.0,30.8,12.81,47.59359,-54.27349
2021-03-19 21:04:01+00:00,185.0,26.57,186.0,30.72,12.81,47.59359,-54.27349
2021-03-19 21:14:01+00:00,187.0,24.46,186.0,30.16,12.57,47.59359,-54.27349
2021-03-19 21:24:01+00:00,219.0,20.12,209.0,23.77,12.57,47.59359,-54.27349
2021-03-19 21:34:01+00:00,224.0,17.64,222.0,20.58,12.57,47.59359,-54.27349
2021-03-19 21:44:01+00:00,225.0,17.57,232.0,24.69,12.57,47.59359,-54.27349
2021-03-19 21:54:01+00:00,229.0,14.36,231.0,17.51,12.57,47.59359,-54.27349
2021-03-19 22:04:01+00:00,227.0,14.66,225.0,17.1,12.57,47.59359,-54.27349
2021-03-19 22:14:01+00:00,219.0,14.4,218.0,16.96,12.57,47.59359,-54.27349
2021-03-19 22:24:01+00:00,206.0,13.55,209.0,16.03,12.57,47.59359,-54.27349
2021-03-19 22:34:01+00:00,206.0,12.24,212.0,14.6,12.57,47.59359,-54.27349
2021-03-19 22:44:01+00:00,215.0,13.0,213.0,14.87,12.57,47.59359,-54.27349
2021-03-19 22:54:01+00:00,213.0,13.32,209.0,16.55,12.57,47.59359,-54.27349
2021-03-19 23:04:01+00:00,214.0,13.02,215.0,14.68,12.57,47.59359,-54.27349
2021-03-19 23:14:01+00:00,204.0,11.33,213.0,13.56,12.49,47.59359,-54.27349
2021-03-19 23:24:01+00:00,206.0,10.16,206.0,11.31,12.49,47.59359,-54.27349
2021-03-19 23:34:01+00:00,205.0,10.08,205.0,11.22,12.49,47.59359,-54.27349
2021-03-19 23:44:01+00:00,205.0,9.66,205.0,10.65,12.49,47.59359,-54.27349
2021-03-19 23:54:01+00:00,197.0,9.07,208.0,10.34,12.49,47.59359,-54.27349
